Weather History for North Bend, OR

Change the Weather History Date:

Sunday, October 28, 2012

  Actual Average Record
Temperature  
Mean Temperature 62 °F 52 °F  
Max Temperature 63 °F 59 °F 78 °F (1944)
Min Temperature 61 °F 45 °F 29 °F (1971)
Degree Days  
Heating Degree Days 3 13  
Month to date heating degree days 283 319  
Since 1 July heating degree days 882 927  
Cooling Degree Days 0 0  
Month to date cooling degree days 1 0  
Year to date cooling degree days 1 2  
Growing Degree Days 11 (Base 50)    
Moisture  
Dew Point 61 °F    
Average Humidity 97    
Maximum Humidity 100    
Minimum Humidity 93    
Precipitation  
Precipitation 0.50 in 0.23 in 2.66 in (1950)
Month to date precipitation 4.87 4.02  
Year to date precipitation 33.67 42.84  
Sea Level Pressure  
Sea Level Pressure 30.00 in    
Wind  
Wind Speed 8 mph (South)    
Max Wind Speed 10 mph    
Max Gust Speed 16 mph    
Visibility 7 miles    
Events      
T = Trace of Precipitation, MM = Missing Value Source: NWS Daily Summary

Daily Weather History Graph

Daily Weather History Graph

Search for Another Location

Airport:

Trip Planner

Search our weather history database for the weather conditions in past years. The results will help you decide how hot, cold, wet, or windy it might be!

Date:

Astronomy

Oct. 28, 2012 Rise Set
Actual Time 7:47 AM PDT 6:12 PM PDT
Civil Twilight 7:18 AM PDT 6:42 PM PDT
Nautical Twilight 6:44 AM PDT 7:15 PM PDT
Astronomical Twilight 6:11 AM PDT 7:49 PM PDT
Moon 5:33 PM PDT (10/28) 6:45 AM PDT (10/28)
Length of Visible Light 11h 23m
Length of Day
10h 24m
Waxing Gibbous, 99% of the Moon is Illuminated
Oct 28
Waxing Gibbous
Oct 29
Full
Nov 6
Last Quarter
Nov 13
New
Nov 20
First Quarter

Hourly Weather History & Observations

Time (PDT) Temp. Dew Point Humidity Pressure Visibility Wind Dir Wind Speed Gust Speed Precip Events Conditions
12:15 AM 60.8 °F 60.8 °F 100% 30.06 in 10.0 mi South 10.4 mph - N/A   Overcast
12:35 AM 60.8 °F 60.8 °F 100% 30.06 in 5.0 mi South 6.9 mph - N/A   Overcast
12:55 AM 60.8 °F 60.8 °F 100% 30.06 in 10.0 mi South 6.9 mph - 0.01 in   Overcast
1:15 AM 60.8 °F 60.8 °F 100% 30.05 in 5.0 mi South 5.8 mph - 0.01 in   Overcast
1:35 AM 60.8 °F 60.8 °F 100% 30.05 in 7.0 mi South 8.1 mph - 0.03 in   Overcast
1:55 AM 60.8 °F 59.0 °F 94% 30.05 in 7.0 mi South 6.9 mph - 0.07 in   Overcast
2:15 AM 60.8 °F 59.0 °F 94% 30.05 in 7.0 mi South 5.8 mph - 0.02 in   Overcast
2:35 AM 60.8 °F 59.0 °F 94% 30.04 in 6.0 mi South 9.2 mph - 0.07 in   Overcast
2:55 AM 60.8 °F 59.0 °F 94% 30.04 in 6.0 mi South 6.9 mph - 0.11 in   Overcast
3:15 AM 60.8 °F 59.0 °F 94% 30.04 in 5.0 mi South 9.2 mph - 0.02 in   Overcast
3:35 AM 60.8 °F 59.0 °F 94% 30.04 in 4.0 mi South 8.1 mph - 0.04 in   Overcast
3:55 AM 60.8 °F 59.0 °F 94% 30.03 in 7.0 mi SSW 8.1 mph - 0.09 in   Overcast
4:15 AM 60.8 °F 59.0 °F 94% 30.04 in 4.0 mi SSW 6.9 mph - 0.05 in   Overcast
4:35 AM 60.8 °F 60.8 °F 100% 30.03 in 5.0 mi SSW 8.1 mph - 0.11 in   Overcast
4:55 AM 60.8 °F 60.8 °F 100% 30.02 in 10.0 mi South 10.4 mph - 0.16 in   Mostly Cloudy
5:15 AM 60.8 °F 60.8 °F 100% 30.02 in 10.0 mi SSW 9.2 mph - 0.01 in   Overcast
5:35 AM 60.8 °F 60.8 °F 100% 30.02 in 3.0 mi SSW 8.1 mph - 0.01 in   Overcast
5:55 AM 60.8 °F 60.8 °F 100% 30.02 in 8.0 mi SSW 8.1 mph - 0.01 in   Overcast
6:15 AM 60.8 °F 59.0 °F 94% 30.02 in 8.0 mi South 6.9 mph - N/A   Overcast
6:35 AM 60.8 °F 59.0 °F 94% 30.01 in 10.0 mi South 8.1 mph - N/A   Overcast
6:55 AM 60.8 °F 59.0 °F 94% 30.00 in 5.0 mi South 8.1 mph - 0.01 in   Overcast
7:15 AM 60.8 °F 59.0 °F 94% 30.00 in 5.0 mi South 5.8 mph - N/A   Overcast
7:35 AM 60.8 °F 60.8 °F 100% 30.00 in 3.0 mi South 6.9 mph - N/A   Overcast
7:55 AM 60.8 °F 60.8 °F 100% 30.00 in 2.0 mi South 5.8 mph - N/A   Overcast
8:15 AM 60.8 °F 59.0 °F 94% 30.00 in 2.0 mi SE 3.5 mph - 0.01 in   Overcast
8:35 AM 60.8 °F 59.0 °F 94% 30.00 in 2.0 mi SE 3.5 mph - 0.02 in   Overcast
8:55 AM 60.8 °F 60.8 °F 100% 30.01 in 2.0 mi South 8.1 mph - 0.03 in   Overcast
9:15 AM 62.6 °F 60.8 °F 94% 30.01 in 10.0 mi South 5.8 mph - 0.01 in   Overcast
9:35 AM 62.6 °F 60.8 °F 94% 30.01 in 3.0 mi South 6.9 mph - 0.01 in   Overcast
10:15 AM 62.6 °F 60.8 °F 94% 30.01 in 4.0 mi South 10.4 mph 18.4 mph N/A   Overcast
10:35 AM 62.6 °F 62.6 °F 100% 30.01 in 4.0 mi South 9.2 mph - N/A   Overcast
10:55 AM 62.6 °F 62.6 °F 100% 30.01 in 4.0 mi South 10.4 mph - N/A   Overcast
11:15 AM 62.6 °F 62.6 °F 100% 30.01 in 4.0 mi South 9.2 mph - N/A   Overcast
11:35 AM 62.6 °F 62.6 °F 100% 30.01 in 4.0 mi SSW 9.2 mph - N/A   Overcast
11:55 AM 62.6 °F 62.6 °F 100% 30.01 in 4.0 mi SSW 10.4 mph 16.1 mph N/A   Overcast
12:15 PM 62.6 °F 62.6 °F 100% 30.01 in 4.0 mi South 9.2 mph - N/A   Overcast
12:35 PM 62.6 °F 62.6 °F 100% 30.01 in 4.0 mi SSW 9.2 mph - N/A   Overcast
12:55 PM 62.6 °F 62.6 °F 100% 30.00 in 4.0 mi SSW 8.1 mph - N/A   Overcast
1:15 PM 62.6 °F 62.6 °F 100% 30.00 in 10.0 mi South 6.9 mph - N/A   Overcast
1:35 PM 62.6 °F 62.6 °F 100% 30.00 in 6.0 mi South 9.2 mph - N/A   Overcast
1:55 PM 62.6 °F 62.6 °F 100% 30.00 in 5.0 mi SSW 9.2 mph - N/A   Overcast
2:15 PM 62.6 °F 62.6 °F 100% 29.99 in 8.0 mi SSW 8.1 mph - N/A   Overcast
2:35 PM 62.6 °F 62.6 °F 100% 29.99 in 10.0 mi South 4.6 mph - N/A   Overcast
2:55 PM 62.6 °F 62.6 °F 100% 29.99 in 10.0 mi South 6.9 mph - N/A   Overcast
3:15 PM 62.6 °F 62.6 °F 100% 29.98 in 10.0 mi SSW 10.4 mph - N/A   Overcast
3:35 PM 62.6 °F 62.6 °F 100% 29.99 in 8.0 mi South 8.1 mph - N/A   Overcast
3:55 PM 62.6 °F 62.6 °F 100% 29.99 in 9.0 mi SSW 8.1 mph - N/A   Overcast
4:15 PM 62.6 °F 62.6 °F 100% 29.99 in 5.0 mi South 8.1 mph - 0.01 in   Overcast
4:35 PM 62.6 °F 62.6 °F 100% 29.99 in 10.0 mi SSW 4.6 mph - 0.01 in   Overcast
4:55 PM 62.6 °F 62.6 °F 100% 29.99 in 5.0 mi SSW 10.4 mph - 0.01 in   Overcast
5:15 PM 62.6 °F 62.6 °F 100% 29.98 in 6.0 mi South 9.2 mph - N/A   Overcast
5:35 PM 62.6 °F 62.6 °F 100% 29.98 in 4.0 mi South 6.9 mph - N/A   Overcast
5:55 PM 62.6 °F 60.8 °F 94% 29.98 in 4.0 mi SSW 6.9 mph - N/A   Overcast
6:15 PM 62.6 °F 60.8 °F 94% 29.99 in 8.0 mi SSW 6.9 mph - N/A   Overcast
6:35 PM 62.6 °F 60.8 °F 94% 29.99 in 10.0 mi SSW 9.2 mph - N/A   Overcast
6:55 PM 60.8 °F 59.0 °F 94% 29.98 in 10.0 mi SSE 9.2 mph - N/A   Mostly Cloudy
7:15 PM 60.8 °F 59.0 °F 94% 29.98 in 10.0 mi SSE 10.4 mph - N/A   Mostly Cloudy
7:35 PM 60.8 °F 59.0 °F 94% 29.98 in 10.0 mi SSE 9.2 mph - N/A   Overcast
7:55 PM 60.8 °F 59.0 °F 94% 29.97 in 10.0 mi SSE 8.1 mph - N/A   Mostly Cloudy
8:35 PM 60.8 °F 60.8 °F 100% 29.96 in 10.0 mi SSE 8.1 mph - N/A   Scattered Clouds
8:55 PM 60.8 °F 59.0 °F 94% 29.97 in 10.0 mi SSE 6.9 mph - N/A   Mostly Cloudy
9:15 PM 60.8 °F 59.0 °F 94% 29.97 in 10.0 mi WSW 3.5 mph - N/A   Overcast
9:35 PM 60.8 °F 60.8 °F 100% 29.97 in 10.0 mi Calm Calm - N/A   Overcast
9:55 PM 62.6 °F 60.8 °F 94% 29.97 in 10.0 mi South 10.4 mph 16.1 mph N/A   Overcast
10:15 PM 60.8 °F 60.8 °F 100% 29.97 in 10.0 mi SSE 10.4 mph - N/A   Overcast
10:35 PM 60.8 °F 60.8 °F 100% 29.98 in 10.0 mi SSE 8.1 mph - N/A   Mostly Cloudy
10:55 PM 60.8 °F 59.0 °F 94% 29.98 in 10.0 mi SSE 8.1 mph - N/A   Mostly Cloudy
11:15 PM 60.8 °F 59.0 °F 94% 29.99 in 10.0 mi SSE 6.9 mph - N/A   Mostly Cloudy
11:35 PM 60.8 °F 59.0 °F 94% 29.98 in 10.0 mi SSE 9.2 mph - N/A   Partly Cloudy
11:55 PM 60.8 °F 59.0 °F 94% 29.98 in 10.0 mi SSE 6.9 mph - N/A   Mostly Cloudy